Temp
-4 -4 -4 -4 -4 -4 -4 -5 -5 -5 -5 -6 -6 -6 -7 -7 -8 -8 -8 -9 -9 -9 -8 -8 -8 -8 -8 -8 -8 -8 -8 -8 -8 -8 -8 -8 -8 -8 -7 -8 -8 -7 -7 -7 -7 -7 -7 -7 -8
-4 -4 -4 -4 -4 -4 -4 -4 -5 -5 -5 -6 -6 -6 -7 -7 -7 -8 -8 -8 -8 -8 -8 -8 -8 -8 -8 -8 -8 -8 -8 -8 -8 -8 -7 -8 -8 -8 -8 -8 -8 -8 -7 -8 -7 -7 -8 -7 -7
-4 -4 -4 -4 -3 -5 -4 -4 -4 -5 -5 -6 -6 -6 -6 -7 -7 -8 -8 -7 -8 -8 -8 -8 -8 -8 -8 -8 -8 -9 -8 -8 -7 -7 -7 -7 -7 -7 -8 -8 -7 -7 -7 -7 -8 -7 -7 -7 -7
-4 -4 -4 -4 -4 -4 -4 -4 -5 -5 -5 -6 -6 -6 -6 -7 -7 -7 -7 -7 -7 -8 -7 -8 -8 -8 -8 -8 -8 -8 -7 -7 -7 -7 -7 -7 -7 -7 -7 -7 -8 -8 -8 -7 -7 -7 -7 -7 -7
-4 -4 -4 -4 -4 -4 -4 -4 -5 -5 -5 -5 -5 -5 -5 -6 -7 -7 -7 -7 -7 -7 -7 -8 -8 -8 -8 -8 -7 -7 -7 -7 -6 -6 -6 -7 -7 -7 -7 -7 -7 -8 -8 -7 -7 -7 -7 -7 -7
-4 -4 -4 -4 -4 -4 -4 -4 -4 -5 -5 -5 -5 -5 -5 -6 -6 -6 -6 -7 -7 -7 -7 -8 -8 -7 -7 -7 -7 -6 -6 -6 -6 -6 -6 -6 -7 -7 -7 -7 -7 -7 -7 -7 -7 -7 -7 -6 -6
-4 -4 -4 -4 -4 -4 -4 -4 -4 -5 -5 -4 -5 -5 -5 -5 -5 -6 -6 -7 -7 -7 -7 -7 -7 -7 -7 -6 -6 -6 -6 -6 -6 -6 -6 -6 -6 -7 -7 -7 -7 -7 -7 -7 -7 -7 -6 -6 -6
-5 -4 -4 -4 -4 -4 -3 -4 -4 -4 -4 -4 -4 -5 -4 -5 -5 -5 -5 -6 -7 -7 -7 -7 -7 -7 -7 -7 -6 -6 -6 -6 -6 -6 -6 -6 -7 -7 -7 -6 -6 -7 -7 -7 -7 -7 -7 -6 -6
-4 -4 -4 -4 -4 -4 -4 -4 -4 -5 -4 -4 -4 -4 -4 -5 -5 -5 -5 -6 -7 -7 -7 -7 -7 -7 -7 -7 -6 -6 -6 -6 -6 -6 -6 -6 -7 -7 -6 -6 -7 -7 -7 -7 -7 -6 -6 -6 -6
-4 -4 -4 -4 -4 -4 -4 -4 -4 -5 -5 -4 -4 -4 -4 -4 -5 -5 -5 -6 -6 -7 -7 -7 -7 -7 -7 -7 -7 -6 -6 -6 -6 -7 -7 -7 -7 -7 -6 -7 -6 -6 -6 -6 -6 -6 -6 -6 -6
-4 -4 -4 -4 -3 -4 -4 -4 -4 -4 -4 -5 -5 -4 -4 -4 -4 -5 -5 -5 -6 -6 -7 -7 -7 -7 -7 -7 -7 -6 -6 -6 -6 -6 -7 -7 -7 -7 -7 -6 -6 -6 -6 -6 -6 -6 -6 -6 -6
-4 -4 -5 -4 -4 -4 -4 -4 -4 -4 -4 -4 -4 -5 -4 -4 -5 -4 -5 -5 -5 -5 -6 -6 -6 -6 -6 -6 -6 -6 -6 -6 -6 -6 -7 -7 -7 -7 -7 -7 -7 -6 -6 -6 -6 -6 -6 -6 -6
-5 -4 -4 -4 -4 -4 -3 -3 -4 -4 -4 -4 -5 -5 -4 -4 -4 -5 -5 -5 -5 -5 -6 -6 -6 -6 -6 -6 -6 -6 -6 -6 -6 -6 -6 -6 -6 -6 -6 -6 -6 -6 -6 -6 -6 -6 -6 -6 -6
-5 -5 -4 -4 -4 -4 -3 -3 -3 -4 -4 -5 -5 -5 -5 -4 -4 -4 -5 -5 -5 -5 -6 -6 -6 -6 -6 -6 -6 -6 -6 -6 -6 -6 -6 -6 -6 -6 -6 -6 -6 -6 -6 -6 -6 -6 -6 -6 -6
-5 -5 -5 -5 -4 -4 -4 -4 -3 -3 -4 -5 -5 -4 -6 -4 -4 -4 -5 -5 -5 -5 -5 -5 -6 -6 -6 -6 -6 -6 -7 -6 -6 -6 -6 -6 -6 -6 -6 -6 -6 -6 -6 -6 -6 -6 -6 -6 -6
-6 -6 -5 -5 -5 -4 -4 -4 -3 -3 -4 -5 -5 -5 -5 -5 -4 -4 -4 -5 -5 -5 -5 -5 -6 -6 -6 -6 -6 -6 -6 -6 -6 -6 -6 -6 -6 -6 -6 -5 -6 -6 -6 -6 -6 -6 -6 -6 -6
-6 -8 -6 -6 -6 -5 -5 -5 -4 -3 -3 -4 -4 -5 -4 -5 -5 -5 -4 -4 -5 -5 -5 -5 -5 -5 -6 -6 -6 -6 -6 -6 -6 -6 -6 -6 -6 -6 -6 -6 -6 -6 -6 -6 -6 -6 -6 -6 -7
-7 -7 -6 -6 -6 -5 -5 -4 -4 -4 -3 -4 -4 -4 -5 -5 -5 -4 -5 -5 -5 -5 -5 -5 -5 -5 -5 -6 -6 -6 -6 -6 -6 -6 -6 -6 -6 -6 -6 -6 -6 -6 -6 -6 -6 -6 -6 -6 -7
-6 -7 -7 -6 -6 -6 -6 -5 -4 -4 -4 -4 -4 -4 -5 -4 -5 -5 -5 -5 -5 -5 -5 -5 -5 -5 -5 -5 -6 -6 -6 -6 -6 -6 -6 -6 -6 -6 -6 -6 -6 -6 -6 -6 -6 -6 -6 -6 -7
-7 -7 -8 -6 -6 -6 -6 -5 -5 -5 -4 -4 -4 -4 -5 -4 -5 -5 -5 -5 -5 -5 -5 -5 -5 -5 -5 -5 -5 -6 -6 -6 -6 -6 -7 -7 -7 -7 -7 -7 -6 -6 -6 -6 -6 -6 -6 -7 -7
-7 -7 -9 -7 -6 -6 -6 -6 -5 -5 -4 -4 -4 -4 -4 -4 -5 -5 -5 -5 -5 -5 -5 -5 -5 -5 -5 -5 -5 -6 -6 -6 -6 -6 -7 -7 -7 -7 -7 -7 -6 -6 -6 -6 -6 -5 -6 -7 -7
-9 -8 -8 -7 -7 -9 -7 -7 -6 -5 -4 -4 -4 -3 -4 -4 -4 -5 -5 -5 -5 -5 -5 -5 -5 -5 -5 -5 -5 -5 -6 -6 -6 -6 -6 -6 -6 -6 -6 -5 -5 -5 -6 -6 -6 -5 -6 -7 -7
-8 -10 -8 -8 -8 -8 -7 -6 -8 -5 -5 -4 -4 -4 -4 -4 -5 -6 -5 -5 -5 -5 -5 -6 -6 -5 -5 -5 -5 -5 -5 -6 -6 -6 -5 -5 -6 -6 -5 -5 -4 -5 -5 -5 -6 -6 -6 -7 -7
-8 -8 -8 -8 -8 -9 -8 -6 -8 -6 -6 -5 -4 -5 -5 -5 -5 -6 -6 -5 -5 -5 -4 -5 -6 -6 -5 -5 -5 -5 -5 -5 -6 -6 -5 -5 -5 -5 -5 -5 -4 -4 -5 -5 -6 -6 -6 -6 -7
-8 -10 -10 -10 -10 -9 -9 -7 -8 -6 -6 -6 -6 -6 -6 -6 -6 -5 -6 -5 -5 -5 -5 -5 -5 -6 -5 -5 -5 -6 -5 -5 -5 -5 -5 -5 -5 -5 -5 -4 -4 -4 -4 -5 -5 -6 -6 -6 -7
-7 -10 -10 -10 -9 -9 -9 -7 -7 -7 -6 -6 -6 -5 -6 -6 -6 -6 -6 -6 -6 -6 -5 -5 -5 -5 -6 -6 -6 -5 -6 -5 -4 -5 -5 -5 -5 -5 -5 -5 -5 -5 -5 -5 -5 -5 -6 -7 -7
-8 -8 -9 -10 -9 -9 -8 -7 -6 -7 -7 -7 -7 -6 -6 -6 -5 -5 -5 -6 -7 -7 -7 -6 -6 -5 -5 -5 -6 -6 -6 -6 -5 -4 -4 -5 -5 -5 -4 -5 -5 -5 -5 -5 -5 -6 -6 -7 -7
-9 -10 -9 -10 -10 -10 -9 -8 -8 -8 -8 -8 -7 -6 -6 -6 -5 -5 -5 -6 -7 -7 -7 -7 -6 -6 -6 -5 -5 -6 -6 -6 -5 -5 -4 -4 -5 -5 -5 -5 -5 -5 -5 -5 -5 -6 -6 -6 -7
-9 -8 -8 -11 -9 -10 -10 -9 -7 -8 -8 -7 -7 -7 -7 -6 -6 -6 -5 -5 -6 -6 -7 -7 -6 -5 -5 -5 -5 -5 -6 -5 -5 -5 -5 -5 -5 -5 -4 -4 -5 -5 -5 -5 -5 -6 -6 -6 -7
-10 -9 -9 -8 -8 -10 -10 -9 -9 -8 -8 -8 -8 -8 -7 -7 -6 -6 -6 -5 -6 -6 -7 -7 -7 -6 -6 -6 -5 -5 -5 -5 -5 -5 -5 -5 -5 -5 -5 -4 -4 -5 -5 -5 -6 -6 -6 -7 -7
Height
5898 5899 5899 5901 5905 5903 5902 5904 5902 5902 5901 5899 5898 5896 5894 5893 5892 5894 5890 5889 5888 5888 5888 5887 5887 5887 5888 5889 5890 5892 5894 5895 5896 5897 5898 5899 5899 5901 5903 5902 5903 5905 5908 5910 5911 5913 5916 5917 5919
5899 5901 5902 5903 5906 5906 5906 5906 5903 5903 5902 5900 5899 5898 5896 5895 5893 5893 5891 5890 5890 5890 5890 5889 5889 5890 5890 5891 5893 5894 5895 5896 5897 5898 5899 5900 5902 5903 5904 5905 5906 5908 5910 5912 5915 5917 5918 5921 5923
5901 5903 5905 5905 5907 5909 5908 5907 5905 5904 5904 5902 5901 5899 5898 5897 5895 5894 5893 5892 5892 5892 5892 5891 5892 5892 5891 5892 5894 5895 5896 5897 5899 5899 5901 5902 5904 5905 5906 5908 5910 5912 5913 5916 5917 5920 5922 5925 5927
5902 5906 5907 5909 5910 5910 5910 5909 5907 5906 5905 5904 5903 5901 5900 5899 5897 5896 5895 5895 5895 5895 5894 5895 5895 5894 5893 5895 5896 5897 5898 5899 5900 5901 5901 5903 5905 5908 5910 5912 5914 5916 5917 5919 5920 5922 5925 5928 5930
5904 5906 5908 5911 5911 5912 5912 5912 5910 5909 5908 5908 5905 5903 5902 5900 5899 5898 5898 5898 5898 5899 5898 5897 5897 5897 5896 5895 5896 5898 5899 5901 5902 5903 5905 5906 5908 5911 5913 5916 5918 5919 5920 5922 5925 5927 5929 5932 5934
5906 5907 5910 5912 5913 5914 5914 5913 5912 5912 5911 5910 5908 5906 5904 5903 5902 5901 5901 5901 5901 5902 5900 5899 5899 5898 5899 5899 5899 5900 5902 5903 5904 5906 5907 5909 5910 5914 5916 5919 5921 5924 5925 5926 5927 5930 5933 5935 5937
5907 5910 5911 5913 5915 5915 5916 5915 5914 5914 5913 5912 5910 5909 5907 5905 5905 5904 5905 5903 5905 5906 5905 5902 5901 5901 5900 5902 5902 5902 5904 5906 5907 5909 5910 5912 5915 5917 5920 5923 5925 5928 5930 5930 5932 5935 5937 5939 5940
5909 5911 5913 5914 5916 5916 5916 5916 5916 5915 5916 5914 5912 5911 5911 5908 5908 5908 5907 5908 5909 5910 5909 5906 5905 5904 5904 5904 5904 5906 5906 5908 5909 5911 5913 5916 5919 5921 5924 5927 5928 5931 5933 5934 5936 5938 5940 5943 5945
5910 5911 5912 5914 5915 5916 5917 5917 5918 5917 5917 5916 5916 5914 5914 5911 5911 5912 5910 5911 5912 5914 5913 5911 5909 5908 5907 5907 5907 5909 5910 5911 5913 5915 5918 5920 5923 5926 5928 5930 5932 5934 5936 5939 5941 5944 5946 5948 5949
5910 5911 5911 5914 5916 5916 5917 5918 5919 5919 5918 5919 5919 5918 5916 5914 5915 5915 5916 5915 5917 5916 5917 5916 5915 5913 5912 5912 5912 5913 5914 5915 5918 5920 5922 5925 5927 5930 5932 5934 5936 5938 5941 5944 5947 5949 5951 5952 5954
5910 5912 5913 5914 5917 5918 5918 5919 5920 5919 5919 5920 5920 5921 5920 5918 5918 5920 5920 5920 5921 5921 5920 5921 5920 5919 5917 5917 5917 5918 5919 5919 5921 5923 5926 5929 5931 5934 5936 5939 5941 5943 5946 5949 5951 5953 5955 5957 5957
5912 5912 5915 5915 5916 5918 5919 5919 5921 5921 5921 5921 5920 5922 5922 5921 5921 5923 5924 5923 5924 5926 5925 5925 5925 5924 5924 5923 5923 5924 5925 5927 5928 5930 5932 5934 5936 5939 5942 5945 5947 5949 5951 5953 5955 5957 5959 5959 5960
5911 5913 5913 5914 5915 5918 5918 5919 5919 5920 5921 5921 5921 5923 5924 5924 5923 5923 5926 5926 5926 5928 5929 5930 5930 5929 5929 5929 5929 5930 5931 5932 5934 5935 5937 5940 5942 5945 5947 5949 5952 5954 5956 5958 5959 5960 5961 5962 5962
5910 5911 5912 5913 5915 5916 5917 5918 5917 5918 5919 5920 5921 5923 5925 5926 5926 5925 5927 5929 5929 5928 5931 5934 5934 5933 5933 5934 5933 5934 5935 5937 5939 5941 5941 5943 5946 5949 5951 5953 5956 5958 5959 5961 5961 5962 5963 5963 5964
5908 5910 5911 5912 5914 5915 5917 5918 5917 5917 5917 5919 5921 5923 5924 5927 5928 5928 5929 5931 5933 5932 5932 5935 5937 5937 5937 5938 5938 5939 5940 5942 5943 5944 5947 5949 5950 5952 5954 5957 5959 5961 5962 5962 5963 5964 5964 5965 5965
5907 5909 5910 5911 5912 5914 5916 5917 5916 5916 5917 5918 5920 5922 5923 5927 5928 5929 5930 5931 5933 5934 5934 5936 5938 5940 5940 5940 5942 5943 5944 5945 5947 5948 5951 5953 5954 5955 5957 5959 5960 5962 5963 5964 5965 5965 5965 5965 5966
5905 5910 5909 5911 5911 5912 5914 5914 5915 5916 5916 5917 5920 5921 5923 5925 5928 5929 5931 5933 5934 5936 5936 5937 5938 5940 5942 5943 5944 5946 5947 5949 5950 5952 5954 5956 5958 5959 5960 5961 5962 5964 5964 5965 5965 5965 5966 5967 5968
5903 5904 5906 5907 5909 5910 5911 5912 5913 5915 5916 5916 5918 5920 5923 5924 5927 5929 5930 5932 5935 5937 5939 5939 5939 5940 5943 5945 5946 5948 5950 5951 5953 5955 5956 5958 5960 5961 5962 5962 5963 5965 5965 5965 5966 5966 5968 5969 5970
5897 5899 5901 5904 5905 5907 5909 5910 5910 5912 5914 5915 5917 5919 5921 5922 5924 5928 5931 5932 5935 5937 5938 5940 5941 5942 5944 5946 5948 5949 5951 5952 5954 5956 5958 5959 5960 5961 5962 5962 5964 5965 5966 5967 5967 5968 5968 5970 5971
5892 5895 5898 5901 5902 5905 5907 5908 5908 5910 5912 5913 5915 5917 5917 5920 5923 5926 5930 5932 5934 5936 5938 5940 5942 5944 5945 5946 5949 5950 5952 5953 5954 5955 5956 5958 5959 5960 5961 5962 5964 5966 5967 5966 5967 5968 5970 5971 5973
5887 5891 5896 5896 5899 5902 5905 5907 5906 5908 5909 5912 5913 5915 5916 5919 5921 5924 5927 5930 5932 5937 5938 5939 5941 5943 5945 5946 5948 5951 5952 5953 5954 5955 5956 5956 5957 5959 5960 5962 5964 5966 5967 5967 5968 5969 5971 5972 5974
5883 5887 5888 5892 5897 5902 5902 5908 5904 5904 5907 5908 5910 5911 5914 5917 5919 5922 5924 5927 5931 5933 5936 5938 5940 5942 5944 5946 5947 5949 5952 5954 5955 5955 5955 5955 5957 5959 5960 5961 5963 5966 5967 5968 5970 5970 5970 5972 5975
5878 5885 5884 5887 5891 5895 5899 5901 5904 5902 5903 5903 5906 5908 5912 5915 5918 5920 5923 5925 5927 5931 5934 5936 5938 5941 5943 5944 5946 5947 5951 5953 5954 5955 5955 5955 5956 5959 5960 5961 5963 5965 5967 5968 5970 5971 5972 5973 5975
5871 5872 5877 5881 5887 5890 5895 5897 5902 5899 5899 5900 5902 5905 5907 5911 5914 5917 5919 5921 5924 5927 5930 5934 5937 5938 5940 5942 5943 5945 5947 5950 5952 5954 5955 5956 5957 5958 5961 5962 5963 5966 5968 5968 5970 5971 5973 5974 5974
5860 5865 5872 5877 5881 5886 5891 5892 5894 5894 5896 5897 5899 5901 5905 5907 5910 5912 5915 5918 5921 5924 5927 5930 5934 5935 5937 5939 5941 5942 5945 5947 5951 5952 5954 5956 5958 5959 5961 5962 5964 5966 5968 5970 5971 5971 5972 5974 5975
5852 5859 5867 5872 5879 5885 5885 5887 5892 5891 5893 5895 5897 5898 5901 5904 5907 5909 5911 5914 5917 5920 5922 5925 5929 5932 5934 5936 5938 5940 5942 5945 5948 5951 5952 5954 5957 5958 5960 5962 5964 5965 5967 5969 5970 5971 5973 5974 5974
5845 5847 5862 5868 5875 5877 5883 5886 5887 5889 5889 5891 5893 5896 5898 5903 5905 5907 5909 5910 5913 5916 5918 5920 5923 5928 5931 5934 5936 5938 5941 5942 5945 5948 5950 5953 5956 5956 5957 5960 5962 5965 5966 5967 5969 5970 5971 5972 5973
5835 5845 5849 5853 5861 5866 5874 5879 5885 5885 5887 5888 5891 5894 5896 5899 5901 5903 5905 5907 5909 5913 5915 5916 5919 5923 5927 5931 5934 5937 5938 5939 5941 5945 5947 5950 5953 5955 5957 5957 5958 5960 5963 5965 5966 5968 5970 5971 5972
5824 5829 5838 5848 5852 5860 5867 5874 5879 5881 5881 5884 5887 5891 5894 5897 5898 5900 5901 5903 5904 5907 5910 5914 5915 5919 5924 5929 5932 5934 5936 5938 5939 5942 5944 5946 5949 5952 5954 5956 5957 5958 5959 5961 5962 5964 5966 5967 5968
5816 5823 5832 5837 5844 5850 5861 5871 5871 5872 5877 5880 5882 5887 5890 5894 5896 5898 5900 5902 5903 5905 5907 5911 5914 5917 5921 5923 5927 5930 5932 5934 5936 5938 5940 5942 5944 5946 5950 5952 5953 5955 5956 5957 5958 5960 5961 5962 5963
Wind_Speed
16 19 22 19 15 14 15 14 16 14 14 15 17 16 15 15 12 11 10 12 11 10 9 11 10 14 14 16 17 17 17 18 19 15 15 17 18 16 17 16 16 17 19 21 22 22 22 23 23
20 18 21 18 16 12 13 13 16 15 14 15 15 16 16 15 12 10 12 13 12 10 10 12 14 15 17 18 19 18 16 15 16 16 16 17 18 18 16 17 17 18 18 18 19 20 21 21 20
20 18 20 16 16 10 11 11 14 15 13 13 14 15 15 13 12 11 14 15 14 14 14 16 18 20 23 22 19 16 16 16 16 17 17 18 19 19 18 19 19 19 18 18 17 18 19 19 19
18 18 17 15 13 11 11 9 14 15 13 12 13 13 14 14 11 12 16 15 16 16 18 19 19 20 21 20 18 17 16 17 16 15 17 19 22 21 19 21 21 20 19 18 17 19 21 20 17
15 16 14 14 13 12 10 9 11 13 13 11 12 13 15 13 13 14 16 17 17 16 18 19 17 18 17 17 17 16 17 18 16 16 18 21 23 22 21 22 20 20 20 19 20 22 22 20 20
17 17 13 12 12 11 8 8 10 12 11 12 13 13 15 14 14 17 18 18 18 16 17 16 14 15 15 15 18 18 18 18 17 19 20 24 24 23 22 22 20 20 21 20 21 24 24 25 24
15 15 12 12 12 10 8 6 9 11 10 11 13 12 14 15 17 19 19 20 18 17 17 18 18 20 20 19 19 20 19 19 20 20 20 22 23 22 22 22 23 23 25 27 31 28 27 26 23
15 14 10 13 9 7 7 8 9 10 9 9 12 12 12 16 17 21 21 21 21 19 21 23 24 25 25 24 21 19 19 22 24 24 23 22 24 24 25 26 25 27 26 30 30 29 28 26 23
15 14 14 11 11 8 7 6 7 8 8 10 10 11 12 18 17 20 23 23 21 21 24 26 29 29 27 25 24 22 22 25 26 26 29 25 26 27 27 26 30 29 31 30 29 28 27 25 22
21 13 17 13 10 10 7 5 6 6 6 8 9 9 11 17 17 21 22 23 21 22 24 28 29 30 30 31 30 28 26 26 24 19 21 28 28 28 32 32 32 31 30 29 28 26 24 22 18
18 13 13 8 7 2 2 4 6 6 5 6 9 6 9 14 19 19 22 20 19 22 24 26 30 32 33 34 35 33 29 31 30 30 29 26 26 30 33 32 31 30 30 29 27 24 21 18 15
16 11 13 10 7 6 5 4 1 4 4 4 7 7 7 12 18 19 18 20 19 21 22 25 28 31 33 36 37 38 37 37 35 34 32 33 35 34 32 31 29 30 29 27 24 21 18 15 14
7 14 12 1 3 5 4 4 6 6 7 5 6 7 5 11 17 21 17 17 21 21 20 22 25 28 29 31 34 35 35 35 36 36 36 35 34 32 31 30 29 28 26 22 19 17 15 15 14
11 8 8 5 3 1 1 3 5 7 14 10 8 7 6 10 15 21 21 17 19 20 19 21 25 25 27 28 30 32 33 33 33 32 34 34 33 32 30 29 26 24 21 17 15 15 14 13 13
11 8 9 8 7 5 5 3 2 5 14 10 10 8 8 11 14 18 21 15 15 19 21 22 22 23 25 29 27 28 28 29 30 30 29 30 31 30 28 26 23 19 17 15 14 13 12 12 16
15 12 10 9 8 7 6 1 2 2 9 13 11 10 10 11 16 19 18 19 18 15 18 19 19 18 22 23 25 25 26 28 28 27 26 27 27 26 25 23 19 17 16 14 13 11 11 15 24
24 18 19 16 11 10 9 5 4 5 6 16 16 14 12 11 17 20 21 20 20 17 17 21 20 19 21 22 23 25 25 24 24 23 22 22 21 20 19 17 16 15 13 12 11 10 14 23 24
25 29 27 25 20 19 17 15 15 12 10 13 17 18 15 14 16 21 23 22 20 18 17 20 22 23 23 24 26 25 22 21 20 19 18 18 17 16 16 17 16 13 11 9 10 13 20 24 22
21 21 24 26 23 20 13 10 10 13 14 13 14 19 19 18 18 19 23 24 22 21 20 21 21 24 23 21 22 21 20 18 17 16 14 13 13 13 15 15 14 13 12 10 11 18 23 24 21
22 20 22 22 22 20 15 12 9 15 13 15 16 21 22 22 17 18 21 25 26 24 23 22 21 21 21 21 19 18 17 16 15 14 13 11 10 10 12 14 14 13 13 12 14 20 23 22 20
28 24 20 24 23 21 17 14 15 14 16 17 18 20 25 23 19 16 19 24 27 27 26 24 22 21 21 19 18 16 17 16 14 13 12 11 10 11 11 12 14 14 15 15 17 20 22 20 19
29 28 29 24 21 14 21 11 19 17 17 19 20 17 23 22 23 18 18 19 24 29 30 27 24 23 21 19 18 16 15 14 14 13 12 13 12 11 11 13 14 16 16 17 18 19 21 19 17
29 24 29 29 27 24 22 19 16 15 15 17 20 21 22 22 23 21 19 18 23 26 29 29 27 25 24 23 21 20 16 14 14 15 16 16 15 13 14 15 16 16 17 17 18 17 18 18 16
29 33 31 29 26 25 22 23 14 17 16 16 18 23 27 27 27 25 25 23 22 25 26 29 29 29 28 26 24 21 18 16 15 18 21 19 16 14 14 16 17 17 16 17 18 19 17 17 15
36 32 29 28 27 24 24 28 20 21 18 18 17 21 25 28 30 29 29 25 19 22 24 27 30 30 30 29 27 24 19 17 16 17 20 20 18 16 14 14 17 18 17 17 17 18 17 15 14
40 37 31 31 23 24 28 27 20 23 21 19 18 18 21 26 30 32 30 26 24 21 23 26 27 30 30 29 29 26 22 21 18 19 19 18 19 18 17 15 16 19 18 17 16 16 16 17 15
43 44 34 29 26 28 26 23 25 21 22 20 23 20 18 19 18 22 27 27 25 24 23 26 26 28 30 31 30 27 26 25 23 24 23 20 21 21 20 19 17 17 17 17 16 14 15 17 18
47 41 42 40 38 33 28 29 22 24 24 22 23 19 19 19 17 18 20 24 26 26 27 27 27 27 28 31 30 29 30 31 30 28 27 26 25 25 23 22 21 20 19 18 18 18 18 18 20
53 52 47 38 41 32 29 28 32 24 27 27 28 23 17 16 15 13 14 18 23 27 28 28 29 29 26 25 29 31 31 32 29 30 30 30 29 28 27 25 23 23 23 22 22 21 21 20 22
52 53 48 48 43 42 29 24 34 37 30 30 30 26 21 20 17 13 10 7 8 11 13 19 23 26 24 26 27 28 32 33 31 31 32 32 31 30 30 30 28 26 25 26 26 26 26 26 26
Wind_Direction
132 118 117 111 101 101 105 100 86 71 69 50 43 45 43 43 44 58 65 81 90 106 106 101 97 107 114 116 116 115 113 118 123 125 116 115 115 113 110 117 120 123 124 125 124 127 129 126 122
125 123 121 114 108 100 102 96 87 73 66 56 48 48 45 44 50 65 72 79 87 94 92 92 99 103 112 116 119 118 118 120 122 121 122 120 120 118 111 116 115 118 123 124 125 126 123 123 120
119 124 129 118 116 122 104 99 89 78 71 59 54 56 52 49 56 74 78 84 90 86 88 105 106 102 110 116 117 120 124 128 126 125 124 127 126 125 122 120 117 117 119 117 119 116 115 118 116
116 121 121 113 114 113 94 81 82 78 69 61 61 63 60 55 58 76 83 92 92 94 99 108 110 107 111 113 116 120 127 131 129 131 135 135 132 129 126 124 117 113 111 114 109 108 113 121 116
139 127 125 128 125 119 111 89 90 82 75 65 60 65 67 59 62 83 86 96 98 97 100 103 105 110 116 121 127 130 132 131 130 132 133 135 131 131 132 129 119 115 110 104 111 112 114 112 115
143 134 138 147 133 137 118 89 90 87 82 75 58 65 74 63 63 88 94 99 99 96 101 98 102 105 106 110 116 122 124 123 126 129 130 136 135 135 135 136 123 112 105 110 127 118 113 114 114
149 133 150 154 139 151 130 110 84 85 71 77 68 59 79 70 72 95 99 103 99 100 94 98 99 101 105 109 112 114 118 121 124 125 131 134 133 129 125 123 118 114 116 111 119 119 119 118 117
157 158 154 160 153 159 129 103 77 81 70 71 73 74 78 81 81 102 104 105 106 100 89 94 98 101 104 110 114 115 123 122 125 125 127 129 127 124 119 117 120 125 121 121 122 124 124 117 117
171 150 165 168 164 154 128 104 92 91 74 59 73 86 88 92 88 105 113 114 114 103 91 93 99 100 99 100 103 108 121 121 120 123 123 128 127 122 119 123 127 127 126 125 124 120 116 116 112
169 163 171 175 173 153 147 125 121 106 100 71 71 79 98 104 98 109 119 121 117 111 100 98 98 103 100 100 102 108 112 120 120 129 137 133 127 120 124 127 128 126 124 121 116 113 111 106 108
188 185 167 182 181 120 102 188 149 134 123 99 76 71 102 113 112 117 123 122 116 112 111 107 102 101 102 101 107 108 108 114 116 117 126 133 133 128 128 125 125 123 119 116 116 113 111 113 108
180 220 199 218 181 189 17 258 231 157 148 133 105 88 122 124 123 125 125 122 120 117 119 117 113 108 106 103 107 107 109 110 111 112 115 116 123 124 124 123 121 118 117 117 116 116 112 106 102
201 198 222 231 231 230 306 280 225 242 199 188 141 117 148 145 141 136 136 130 125 119 120 124 120 118 114 112 112 113 113 113 115 116 117 119 120 123 123 121 118 119 119 119 118 114 109 102 93
196 197 212 206 178 274 9 268 250 206 209 195 172 139 148 167 155 147 142 136 132 126 128 129 125 122 118 115 118 120 121 121 120 121 123 124 124 125 123 122 123 124 123 122 116 109 103 100 96
216 210 235 251 259 256 227 242 277 166 215 192 181 170 159 178 171 163 161 154 146 135 129 138 130 133 129 123 122 120 121 123 123 122 123 126 128 129 130 130 130 129 126 123 118 109 106 106 111
227 237 238 248 240 226 181 185 332 307 202 196 185 205 177 177 180 171 168 161 161 154 146 144 149 140 146 141 134 133 130 130 130 128 130 133 136 137 138 138 139 141 137 129 123 115 114 116 124
235 244 240 234 218 211 211 220 274 282 241 206 196 203 181 184 189 186 175 172 165 164 152 146 148 149 145 149 148 142 140 139 143 138 141 145 144 145 146 144 145 143 142 141 129 128 128 131 126
238 236 240 236 235 240 244 255 253 245 222 213 204 204 196 190 198 194 186 183 176 167 159 153 148 148 147 142 143 148 145 144 148 148 151 154 160 162 161 159 157 152 148 153 145 140 137 136 127
227 223 224 231 234 241 244 247 243 225 234 222 215 205 199 204 199 203 197 190 185 179 174 163 164 159 157 159 156 156 160 161 158 154 158 162 167 175 177 176 169 166 167 160 155 146 143 140 138
224 209 222 229 228 228 224 223 239 231 233 219 213 212 207 213 204 206 204 199 194 189 180 176 171 173 170 166 169 168 174 172 168 167 171 178 179 178 184 183 181 179 170 159 160 153 151 148 146
218 210 224 224 222 226 216 224 230 235 240 240 241 236 220 215 209 210 214 208 204 198 198 189 184 179 177 173 174 180 182 186 185 187 189 190 176 175 178 185 180 175 172 165 165 158 156 154 157
223 221 229 221 215 212 199 206 224 226 234 247 242 235 215 211 207 211 218 219 214 209 203 202 196 190 192 188 185 187 197 203 206 191 192 179 168 173 176 173 172 169 173 169 173 168 163 163 170
219 225 223 221 210 216 208 220 243 229 249 250 237 215 215 214 214 206 222 221 224 218 212 206 203 203 199 196 197 194 202 213 220 200 185 179 175 174 174 176 170 172 176 178 180 180 174 175 178
216 223 222 228 222 227 212 209 218 234 247 255 249 227 220 213 217 211 210 216 219 223 219 214 210 209 209 206 202 204 201 214 217 199 182 180 182 183 180 177 178 176 186 188 188 192 190 190 191
217 218 220 225 226 229 229 202 197 222 234 241 241 230 222 218 218 218 220 218 219 221 223 221 214 212 213 212 211 210 207 211 216 208 191 187 184 180 190 188 187 188 192 203 202 201 205 209 213
225 217 217 222 223 228 240 208 217 223 230 238 243 248 235 223 221 222 224 217 215 218 214 220 222 217 217 215 216 214 207 213 218 217 203 202 195 192 189 194 197 197 199 207 214 216 218 224 228
225 226 219 225 227 226 233 211 213 220 229 230 235 241 234 220 228 227 223 224 222 226 216 215 220 225 222 221 218 214 210 210 216 217 215 210 216 206 201 200 203 210 207 214 221 227 231 233 238
219 227 221 221 220 230 219 213 205 218 227 230 240 237 226 225 230 234 232 227 221 223 223 219 218 224 226 225 222 218 215 215 211 216 214 216 221 220 217 212 212 213 219 222 225 231 237 246 248
220 225 222 225 224 226 230 224 212 214 225 228 233 239 240 231 225 225 226 216 220 221 223 223 221 222 227 230 228 229 226 228 220 217 219 216 218 224 224 223 224 226 222 223 225 229 233 239 246
222 225 225 228 229 228 219 222 218 216 224 224 231 232 232 229 228 218 204 194 176 191 216 228 234 239 234 228 229 228 229 232 230 224 224 225 222 224 229 229 229 230 232 230 229 229 231 236 242